Regional Weather Roundup
Issued by NWS Green Bay, WI

Home | Current Version | Previous Version | Graphics & Text | Print | Product List | Glossary Off
Versions: 1 2 3 4 5 6 7 8 9 10 11 12 13 14 15 16 17 18 19 20 21 22 23 24 25 26 27 28 29 30 31 32 33 34 35 36 37 38 39 40 41 42 43 44 45 46 47 48 49 50

000
ASUS43 KGRB 021811
RWRGRB

NORTH-CENTRAL AND NORTHEAST WISCONSIN REGIONAL WEATHER ROUNDUP
NATIONAL WEATHER SERVICE GREEN BAY WI
100 PM CDT TUE JUN 02 2015

WIZ005-009-010>012-018-019-021900-
NORTH CENTRAL WISCONSIN

CITY           SKY/WX    TMP DP  RH WIND       PRES   REMARKS
IRONWOOD       CLOUDY    68  43  40 SW10      30.03F
MANITOWISH WTR PTSUNNY   66  42  41 S8        30.09F
ARBOR VITAE    PTSUNNY   68  39  34 S12G20    30.09F
EAGLE RIVER    PTSUNNY   67  31  26 SW7       30.10F
LAND O LAKES   PTSUNNY   68  33  27 S10       30.11F
RHINELANDER    MOSUNNY   66  33  29 S13G18    30.12F
PHILLIPS       SUNNY     67  43  41 S12       30.08F
ANTIGO         MOSUNNY   64  43  46 SE6       30.14F
TOMAHAWK       SUNNY     67  42  41 S5        30.11F
MERRILL        SUNNY     67  37  33 SE9       30.12F
$$

WIZ013-073-021900-
NORTHEAST WISCONSIN

CITY           SKY/WX    TMP DP  RH WIND       PRES   REMARKS
IRON MOUNTAIN  MOSUNNY   70  34  26 S13G21    30.10F
MARINETTE      MOSUNNY   66  43  42 SE10      30.14F
OCONTO         MOSUNNY   67  42  40 S7        30.15F
$$

WIZ017-030-035>037-045-021900-
CENTRAL WISCONSIN

CITY           SKY/WX    TMP DP  RH WIND       PRES   REMARKS
MEDFORD        SUNNY     65  45  48 S9        30.12S
WAUSAU         SUNNY     68  40  35 S13       30.10F
MOSINEE        SUNNY     66  39  37 S8        30.14F
MARSHFIELD     SUNNY     68  41  37 SE12      30.11F
WISC RAPIDS    SUNNY     70  34  26 S9        30.13F
STEVENS POINT  SUNNY     66  36  33 SE6       30.13F
WAUPACA        MOSUNNY   71  40  32 S10       30.14F
SHAWANO        MOSUNNY   70  42  36 S6        30.14F
CLINTONVILLE   MOSUNNY   68  37  32 S7        30.14F
$$

WIZ038-039-048-051-021900-
FOX VALLEY

CITY           SKY/WX    TMP DP  RH WIND       PRES   REMARKS
NWS GREEN BAY  MOSUNNY   70  44  39 SW9       30.15F
APPLETON       SUNNY     68  37  32 S13G18    30.16F
OSHKOSH        SUNNY     70  42  36 SE12      30.14F
FOND DU LAC    SUNNY     69  44  40 S8        30.15F
$$

WIZ022-050-052-021900-
EAST CENTRAL WISCONSIN

CITY           SKY/WX    TMP DP  RH WIND       PRES   REMARKS
STURGEON BAY   MOSUNNY   64  45  48 S12       30.19F
MANITOWOC      MOSUNNY   57  46  66 E9        30.18F
SHEBOYGAN      SUNNY     65  43  44 SE8       30.17F
$$

LMZ563-521-522-541>543-021900-
LAKESHORE

STATION/POSITION TIME  TEMP    WIND        PRES    VSBY  WAVE
                       AIR SEA DIR/SP/G                  HT/PER
                 (UTC) (F)     (DEG/KT/KT) (MB)    (MI)  (FT/S)
SHEBOYGAN LKSHOR 1800   46     140/  9/ 10 1022.7F
KEWAUNEE LKSHORE 1700   47     160/  9/ 10 1021.6F
ALGOMA MARINA    1739          190/  5/  7   N/A
NORTHPORT PIER   1700   52     160/  9/ 13 1022.0F
N MID LAKE BUOY  1750   42 38  180/  6/  6 1022.7F         0
SISTER BAY LKSHO 1718   62     360/  4/  4   N/A
CHAMBERS ISLAND  1700   60     340/  2/  4 1022.0F
MENOMINEE LKSHOR 1700   58     130/  7/  8 1022.3F
$$


USA.gov is the U.S. government's official web portal to all federal, state and local government web resources and services.